Dewpoint
39 39 40 40 41 40 41 41 41 42 42 42 41 40 42 42 43 43 40 42 40 34 36 36 36 33 33 32 29 28 28 32 32 28 29 31 30 32 32 33 34 34 33 33 32 29 26 29 26 25 27 26 34 33
39 39 40 40 40 40 41 41 41 41 42 42 41 40 42 43 43 43 39 44 44 36 35 38 37 37 36 35 33 33 31 28 34 31 32 32 31 32 32 29 35 32 35 33 32 30 32 26 27 29 27 29 31 34
38 38 39 39 40 40 41 41 41 41 41 42 41 41 43 43 43 42 40 41 39 34 33 34 31 37 39 37 38 28 33 32 32 38 34 34 29 32 30 32 33 35 34 30 28 27 24 28 28 26 28 28 30 31
38 38 38 38 40 40 40 40 41 41 41 42 41 41 43 43 43 41 37 40 37 35 28 29 37 34 37 37 36 36 35 36 36 35 32 33 32 36 32 34 32 33 34 30 28 24 24 26 25 26 25 26 27 28
38 38 38 38 39 40 40 40 40 41 41 40 40 41 41 43 43 41 39 40 40 32 29 31 34 36 36 36 35 35 35 34 32 31 31 31 34 33 32 34 32 34 32 29 28 24 25 25 26 28 26 26 24 23
37 37 38 38 39 39 40 40 40 41 41 40 40 41 42 43 41 38 33 39 39 37 33 28 31 31 35 36 35 34 33 32 34 32 33 33 36 32 31 30 34 35 35 34 31 26 25 27 27 25 23 22 21 20
35 36 37 37 38 39 39 39 40 40 40 40 40 40 40 40 39 34 34 37 40 40 32 28 26 33 35 34 34 33 35 33 34 33 32 32 32 34 32 29 34 32 32 34 30 28 27 27 26 24 22 22 24 20
34 34 36 37 37 37 39 39 39 40 40 41 39 40 40 39 39 34 37 40 40 36 35 28 27 28 34 31 30 34 32 33 33 33 33 32 33 32 28 32 34 34 32 31 28 27 27 27 25 22 18 17 18 18
34 33 34 35 35 36 37 37 38 39 40 40 38 39 38 37 34 35 39 39 40 36 29 28 25 24 32 31 33 32 34 28 33 30 31 29 28 26 28 29 34 35 34 31 27 29 28 26 22 19 17 18 20 22
32 32 32 34 35 35 36 36 37 38 39 39 35 35 32 34 38 36 34 32 34 34 34 29 28 26 32 29 29 28 30 26 23 27 31 27 20 23 26 30 30 30 28 24 28 28 26 23 21 18 18 21 23 27
33 33 32 32 34 33 33 34 35 36 37 35 33 32 34 38 31 32 30 28 28 27 28 27 25 26 29 27 28 29 25 27 21 23 23 24 19 20 25 24 25 25 24 24 23 23 20 20 20 22 26 30 31 31
32 32 32 32 34 34 33 34 34 34 33 34 34 35 34 33 29 26 22 24 22 21 26 25 26 27 29 30 27 27 25 27 19 24 24 21 25 23 24 26 25 21 22 20 21 22 25 26 30 30 31 31 30 29
31 31 32 32 34 34 34 33 34 36 37 36 34 30 28 25 16 19 16 20 18 26 26 27 24 28 29 30 27 26 24 18 25 18 20 25 26 28 26 24 21 20 22 23 29 31 32 32 31 30 28 29 29 28
30 31 32 33 35 34 34 33 35 36 35 30 25 13 19 20 23 24 26 28 26 27 26 29 28 29 28 26 26 19 23 24 19 17 23 25 28 29 29 32 31 31 31 31 30 30 30 29 28 28 27 27 28 28
32 32 34 34 33 32 32 35 37 35 33 26 25 15 19 24 26 26 28 28 27 28 29 26 27 27 25 22 24 21 18 16 19 21 26 29 30 31 30 30 31 31 30 29 29 28 27 27 27 26 27 28 27 25
31 33 32 32 31 32 35 35 35 33 30 27 25 23 25 27 21 24 26 26 29 28 28 26 23 22 21 23 20 17 16 16 21 28 30 29 29 30 30 30 30 30 29 29 29 29 27 26 26 27 27 27 27 27
31 35 34 31 31 34 36 33 31 28 26 23 24 28 30 30 23 25 28 28 32 27 21 25 16 20 23 20 19 24 20 28 30 31 30 29 29 30 30 30 29 29 28 28 27 27 28 29 28 27 26 26 27 26
29 31 33 33 31 33 31 30 28 25 22 25 26 23 28 31 31 29 28 29 29 30 29 25 26 21 17 17 20 29 31 31 30 31 32 31 31 30 30 29 30 29 28 27 28 27 27 27 26 26 28 26 26 27
30 32 34 34 30 32 26 26 28 24 23 25 25 27 27 26 30 30 28 28 30 35 31 27 22 23 24 29 28 31 30 29 30 31 32 31 30 30 30 28 29 27 26 27 27 26 26 26 26 26 27 27 27 27
33 33 34 32 31 29 22 25 29 25 23 24 26 24 26 27 28 27 26 27 28 28 25 24 23 24 26 27 30 32 32 31 30 29 29 31 31 30 28 28 28 27 28 28 28 28 28 28 28 28 27 26 27 26
29 30 31 30 28 29 26 24 23 23 23 22 24 24 23 26 25 25 26 28 24 21 22 22 21 24 28 29 30 31 31 32 29 28 28 29 31 30 28 28 29 29 28 28 28 27 27 27 27 28 28 27 28 28
30 31 29 28 25 24 24 25 21 25 22 23 21 21 20 17 19 23 29 20 19 19 21 21 22 24 25 27 27 27 28 32 33 30 29 30 28 29 29 29 28 28 28 28 28 28 28 27 27 27 27 27 27 26
30 30 28 26 19 17 16 23 20 20 18 19 22 18 18 19 24 28 20 19 18 21 21 22 24 26 27 27 23 22 23 25 28 29 30 30 30 30 30 30 30 29 28 28 29 29 28 28 28 27 27 27 27 27
28 25 20 21 21 12 22 15 21 20 19 17 16 13 19 19 22 17 11 14 18 19 18 19 22 20 21 21 19 19 19 21 23 24 23 29 29 30 31 30 30 30 28 30 30 28 28 27 27 26 26 25 26 27
21 17 19 10 19 13 7 9 11 11 4 8 7 9 10 19 16 11 10 14 14 14 14 17 20 17 15 16 17 17 20 19 20 19 18 20 26 31 30 30 31 31 29 28 27 27 26 27 26 25 24 25 26 26
10 15 16 13 13 11 10 3 4 3 7 2 8 14 16 9 6 7 8 12 5 10 9 12 15 14 14 16 15 15 18 19 21 16 16 18 17 17 26 24 23 24 29 28 25 24 25 26 25 24 24 25 26 26
9 12 17 15 16 13 11 12 11 9 -1 -2 7 2 2 -0 4 10 11 11 12 15 13 13 14 14 14 15 16 18 19 19 18 17 18 18 18 19 22 22 19 20 24 27 26 24 25 25 24 24 23 23 24 24
17 17 7 13 11 12 2 6 2 -1 7 10 8 -4 -5 -1 3 8 9 10 12 16 15 14 16 17 16 16 15 14 14 16 19 19 19 17 17 18 18 19 20 21 19 20 19 21 23 25 25 25 24 24 22 24
15 17 11 2 6 9 5 4 6 11 11 10 2 5 8 10 11 13 14 11 11 14 11 9 13 14 18 15 14 13 12 11 10 7 8 9 10 13 17 17 17 18 19 19 20 20 19 17 16 16 17 18 17 17
15 17 9 3 -2 2 9 14 12 10 12 13 11 9 12 11 9 10 10 9 14 13 4 4 7 3 1 6 8 8 10 9 6 4 4 7 11 14 15 15 15 16 17 16 17 18 19 19 20 18 17 17 15 14
17 16 10 10 8 14 11 11 10 9 7 8 7 7 11 10 9 9 9 8 7 5 7 3 2 1 0 -1 -3 -1 1 0 -0 2 4 7 10 10 12 14 14 15 15 14 14 14 14 15 15 16 16 16 16 14
16 12 7 5 8 10 9 10 11 8 6 3 4 5 3 1 4 8 8 7 3 3 7 8 8 1 -1 -1 -0 1 -2 -2 4 -3 -4 -5 -5 -4 2 6 10 10 9 9 9 10 11 12 12 13 13 13 14 15
12 12 10 7 3 3 5 5 6 1 2 1 10 7 3 2 3 10 10 9 9 10 4 10 8 0 -3 -2 -3 -2 -1 2 -2 6 0 0 -4 -3 -7 -2 -2 1 2 3 5 5 5 6 7 8 9 10 11 11
Lifted_Index
8 8 8 7 6 6 5 5 5 5 5 6 6 5 5 4 4 3 3 4 3 3 3 3 2 2 2 2 2 1 1 0 1 2 1 1 0 0 0 -0 -1 -1 0 0 0 0 1 2 2 3 3 3 3 3
8 8 8 7 7 6 5 5 5 5 5 6 6 5 4 4 3 3 3 3 3 3 2 2 2 2 2 2 2 2 1 1 1 1 2 1 1 0 0 -0 0 0 1 1 1 1 2 2 3 3 3 3 3 4
8 8 8 8 7 6 6 5 5 5 5 5 5 5 4 3 3 2 2 3 3 2 2 2 2 2 3 3 3 2 2 2 1 2 2 2 1 1 0 0 1 1 2 2 2 2 2 3 4 4 3 3 4 4
9 9 8 8 7 6 6 5 5 5 5 5 5 4 3 2 2 2 2 2 2 2 2 2 2 2 3 3 3 3 2 2 2 2 2 2 1 1 1 1 1 2 2 2 2 2 2 3 4 4 4 4 4 4
9 9 9 8 7 7 6 5 5 5 5 5 5 4 3 2 2 2 2 2 2 2 2 2 2 2 3 3 3 3 2 2 2 2 2 2 1 1 1 1 2 2 2 2 2 2 3 3 4 5 5 4 5 5
9 9 9 8 8 7 6 5 5 5 5 5 5 4 3 2 2 2 2 2 3 3 2 2 2 3 3 3 3 3 2 2 2 2 2 2 1 1 1 2 2 2 2 2 2 2 3 3 4 5 5 6 6 6
10 10 9 9 8 7 6 6 5 5 5 5 5 4 3 3 3 2 2 2 3 3 3 3 3 3 4 3 3 3 3 2 2 2 1 1 1 1 1 2 2 3 3 2 2 3 3 4 5 6 7 7 7 7
11 11 10 9 9 8 7 6 5 5 4 4 4 4 4 4 3 3 3 3 3 3 3 3 3 3 4 3 3 3 3 2 2 1 1 1 0 0 1 1 2 3 3 2 3 3 3 4 5 7 8 8 8 9
11 11 11 10 9 9 8 7 6 5 4 4 4 4 4 4 4 4 4 4 3 3 3 3 3 3 4 3 3 3 3 2 2 2 2 1 0 1 1 1 1 2 3 3 3 3 4 5 6 7 8 9 9 10
12 12 11 11 10 9 8 7 6 5 4 4 4 4 4 4 5 5 5 4 4 4 4 4 4 4 4 4 4 4 3 3 2 3 2 2 1 2 2 2 2 3 3 4 4 4 5 6 7 8 8 9 10 10
12 12 12 11 10 10 9 8 7 5 4 4 4 3 3 4 4 4 4 4 4 4 4 5 5 4 5 4 4 4 3 3 3 3 3 3 3 4 4 4 4 5 5 5 5 6 6 7 8 8 9 9 9 9
12 12 12 11 11 10 9 9 7 6 5 4 4 3 3 3 3 3 3 3 4 4 5 5 5 5 5 5 4 4 3 3 3 4 4 4 5 6 6 6 6 7 7 7 7 7 7 8 8 8 8 8 9 9
12 12 11 11 10 10 9 9 7 5 4 3 3 2 2 2 2 2 2 2 3 3 4 5 5 5 5 5 4 4 4 3 4 4 4 5 6 7 7 7 7 8 8 8 8 7 7 7 8 8 8 8 8 9
12 11 11 11 10 10 10 9 7 5 2 1 1 2 2 2 2 2 2 2 2 3 3 4 4 4 4 4 4 4 4 4 3 3 4 5 6 6 7 7 7 8 8 8 7 7 7 7 7 7 8 8 8 8
11 11 10 10 10 10 9 8 6 4 3 1 1 1 1 2 2 2 2 2 2 3 3 3 3 3 3 3 3 4 4 3 3 3 4 5 6 6 6 6 6 7 7 6 6 6 6 6 7 7 7 7 7 6
11 10 10 10 10 10 9 7 6 5 3 2 2 1 1 1 1 1 1 2 2 2 2 2 2 2 2 2 2 2 2 2 2 3 4 5 5 5 5 5 6 6 6 5 5 5 6 6 6 6 6 5 5 5
10 10 10 10 11 10 8 7 6 5 4 3 2 2 1 1 1 1 1 1 1 1 1 1 1 1 1 1 1 1 1 1 2 2 3 4 4 5 5 5 5 5 5 5 5 5 5 5 5 5 4 4 4 4
11 10 10 10 10 10 9 8 7 6 5 4 3 2 1 1 1 1 1 1 1 1 1 0 0 0 1 1 0 0 1 1 2 2 3 3 3 4 4 4 4 4 4 4 4 4 4 4 3 3 4 4 4 4
11 10 10 10 10 9 9 8 7 6 6 5 4 3 2 2 1 1 1 1 1 0 0 0 0 0 0 0 0 1 1 1 2 2 3 3 3 3 3 3 3 3 3 3 3 3 3 3 3 3 4 4 4 4
10 10 9 9 9 9 9 8 7 7 6 6 5 4 3 2 2 1 2 1 1 1 1 1 1 0 0 1 1 1 1 1 2 2 2 2 3 3 3 3 3 3 3 3 3 3 3 4 4 4 4 4 4 5
10 10 9 9 9 9 8 8 7 7 7 6 6 5 4 3 2 2 2 1 1 1 1 1 1 1 1 1 1 1 1 1 2 2 2 2 3 3 3 3 3 3 3 3 3 4 4 4 4 4 5 5 5 5
10 10 9 9 9 9 8 8 8 7 7 6 6 6 5 4 3 2 2 2 2 2 3 3 2 2 2 2 2 2 1 1 2 2 2 3 2 2 3 3 3 3 3 4 4 4 5 5 5 5 5 6 6 6
10 10 9 9 9 9 8 8 8 7 7 7 6 6 6 5 4 3 3 2 3 4 5 4 4 3 3 2 2 2 2 2 2 2 2 3 2 2 3 3 3 3 4 4 5 5 5 6 6 6 6 6 7 7
10 10 9 9 8 8 8 8 8 8 7 7 7 7 6 6 5 4 3 3 4 5 5 5 5 4 3 3 2 2 2 2 2 2 2 2 3 3 3 3 4 4 5 5 5 6 6 6 6 6 6 7 7 7
9 9 9 8 8 8 8 8 8 8 8 8 8 8 7 7 6 5 4 4 4 5 5 5 5 4 4 3 3 3 4 3 3 2 2 2 3 3 3 3 4 5 5 5 6 6 6 6 6 6 7 7 7 7
8 9 8 8 8 8 8 8 8 8 8 8 9 9 8 7 6 6 6 6 6 6 6 6 6 5 5 5 5 5 5 5 5 4 3 3 3 3 3 3 3 4 5 6 6 6 6 6 6 7 7 8 8 8
8 8 9 9 9 9 9 9 9 9 8 9 9 9 8 8 7 7 8 8 9 9 9 8 8 7 7 6 7 7 7 7 7 6 6 5 5 4 4 4 4 5 6 6 6 6 6 6 7 7 7 8 8 8
9 9 9 9 9 9 9 9 9 9 9 10 10 9 8 8 8 9 9 10 10 10 10 10 10 9 8 8 8 8 8 8 8 8 7 7 6 6 6 6 6 6 6 7 7 7 7 7 7 8 8 8 8 8
9 9 9 9 9 9 9 9 9 10 11 11 10 9 9 9 9 10 10 11 11 11 11 11 10 10 10 9 8 8 8 8 8 7 7 6 6 7 8 8 8 8 8 8 8 8 8 8 8 8 8 8 8 8
9 10 9 9 8 9 9 10 11 11 12 12 11 11 10 10 10 10 11 11 11 11 11 11 11 11 10 10 9 9 9 9 9 8 8 7 8 8 9 9 9 9 9 9 9 9 9 9 9 9 8 8 8 8
10 10 9 8 8 9 11 11 12 12 12 12 12 11 10 10 10 10 11 11 11 11 11 11 11 11 11 11 10 10 10 10 11 10 10 10 10 10 10 10 10 10 10 10 10 9 9 9 9 9 9 9 8 8
10 10 9 8 9 10 11 11 11 11 11 11 11 11 10 9 9 9 10 11 11 11 11 12 11 11 12 12 12 11 11 12 12 12 12 12 12 12 12 12 12 12 11 11 11 10 10 10 9 9 9 9 9 9
10 10 9 9 9 10 11 11 10 10 10 10 10 10 10 9 8 9 10 11 11 11 11 12 12 12 12 12 12 12 12 12 13 13 13 13 13 13 13 13 13 13 12 12 11 11 11 10 10 10 10 10 10 10